Hourly Weather Gendringen

Today, 1 October, Thursday

Time Temperature Precipitation Wind Pressure Humidity
00:00 +14°C° 0 mm 4 mps 754 mmHg 86%
01:00 +14°C° 0 mm 4 mps 753 mmHg 86%
02:00 +13°C° 0 mm 4 mps 753 mmHg 86%
03:00 +13°C° 0 mm 4 mps 752 mmHg 86%
04:00 +13°C° 0 mm 4 mps 751 mmHg 86%
05:00 +13°C° 0 mm 4 mps 751 mmHg 86%
06:00 +13°C° 0 mm 4 mps 751 mmHg 86%
07:00 +14°C° 0 mm 4 mps 750 mmHg 83%
08:00 +15°C° 0 mm 5 mps 750 mmHg 80%
09:00 +15°C° 0 mm 5 mps 749 mmHg 77%
10:00 +16°C° 0.3 mm 5 mps 749 mmHg 78%
11:00 +16°C° 0.3 mm 5 mps 748 mmHg 78%
12:00 +16°C° 0.3 mm 5 mps 748 mmHg 79%
13:00 +15°C° 0.6 mm 5 mps 748 mmHg 82%
14:00 +15°C° 0.6 mm 6 mps 747 mmHg 86%
15:00 +14°C° 0.6 mm 6 mps 747 mmHg 90%
16:00 +13°C° 0.1 mm 5 mps 747 mmHg 90%
17:00 +12°C° 0.1 mm 4 mps 748 mmHg 91%
18:00 +12°C° 0.1 mm 3 mps 748 mmHg 92%
19:00 +11°C° 0 mm 3 mps 748 mmHg 92%
20:00 +11°C° 0 mm 3 mps 748 mmHg 93%
21:00 +10°C° 0 mm 3 mps 748 mmHg 93%
22:00 +10°C° 0 mm 3 mps 748 mmHg 93%
23:00 +10°C° 0 mm 3 mps 748 mmHg 93%

Tomorrow, 2 October, Friday

Time Temperature Precipitation Wind Pressure Humidity
00:00 +9°C° 0 mm 2 mps 748 mmHg 93%
01:00 +9°C° 0 mm 2 mps 748 mmHg 93%
02:00 +9°C° 0 mm 2 mps 747 mmHg 93%
03:00 +8°C° 0 mm 2 mps 747 mmHg 93%
04:00 +8°C° 0 mm 3 mps 747 mmHg 93%
05:00 +8°C° 0 mm 3 mps 747 mmHg 93%
06:00 +8°C° 0 mm 3 mps 746 mmHg 92%
07:00 +10°C° 0 mm 4 mps 746 mmHg 87%
08:00 +12°C° 0 mm 4 mps 746 mmHg 81%
09:00 +13°C° 0 mm 5 mps 746 mmHg 75%
10:00 +14°C° 0 mm 5 mps 746 mmHg 72%
11:00 +16°C° 0 mm 5 mps 746 mmHg 68%
12:00 +17°C° 0 mm 6 mps 745 mmHg 65%
13:00 +17°C° 0 mm 5 mps 745 mmHg 66%
14:00 +17°C° 0 mm 5 mps 745 mmHg 67%
15:00 +18°C° 0 mm 4 mps 744 mmHg 68%
16:00 +16°C° 0 mm 5 mps 744 mmHg 69%
17:00 +16°C° 0 mm 5 mps 744 mmHg 69%
18:00 +15°C° 0 mm 6 mps 744 mmHg 70%
19:00 +15°C° 0 mm 6 mps 744 mmHg 73%
20:00 +15°C° 0 mm 6 mps 743 mmHg 75%
21:00 +15°C° 0 mm 6 mps 743 mmHg 77%
22:00 +14°C° 0 mm 6 mps 742 mmHg 79%
23:00 +14°C° 0 mm 6 mps 742 mmHg 81%

Day after tomorrow, 3 October, Saturday

Time Temperature Precipitation Wind Pressure Humidity
00:00 +14°C° 0 mm 7 mps 741 mmHg 84%
01:00 +14°C° 0 mm 7 mps 741 mmHg 85%
02:00 +12°C° 0 mm 7 mps 740 mmHg 86%
03:00 +12°C° 0 mm 7 mps 740 mmHg 87%
04:00 +13°C° 0 mm 6 mps 740 mmHg 86%
05:00 +13°C° 0 mm 6 mps 740 mmHg 85%
06:00 +13°C° 0 mm 5 mps 739 mmHg 84%
07:00 +14°C° 0 mm 5 mps 739 mmHg 83%
08:00 +15°C° 0 mm 4 mps 739 mmHg 81%
09:00 +15°C° 0 mm 4 mps 739 mmHg 79%
10:00 +17°C° 0 mm 4 mps 739 mmHg 78%
11:00 +17°C° 0 mm 4 mps 739 mmHg 77%
12:00 +16°C° 0 mm 5 mps 739 mmHg 76%
13:00 +15°C° 0.2 mm 5 mps 739 mmHg 79%
14:00 +13°C° 0.2 mm 4 mps 739 mmHg 82%
15:00 +12°C° 0.2 mm 4 mps 739 mmHg 85%
16:00 +12°C° 0 mm 4 mps 739 mmHg 84%
17:00 +11°C° 0 mm 4 mps 739 mmHg 83%
18:00 +11°C° 0 mm 4 mps 739 mmHg 81%
19:00 +11°C° 0 mm 4 mps 739 mmHg 79%
20:00 +10°C° 0 mm 5 mps 739 mmHg 76%
21:00 +10°C° 0 mm 6 mps 739 mmHg 74%
22:00 +11°C° 0 mm 6 mps 738 mmHg 73%
23:00 +11°C° 0 mm 6 mps 738 mmHg 72%

4 October, Sunday

Time Temperature Precipitation Wind Pressure Humidity
00:00 +11°C° 0 mm 6 mps 737 mmHg 71%
01:00 +11°C° 0.1 mm 6 mps 737 mmHg 75%
02:00 +11°C° 0.1 mm 6 mps 736 mmHg 78%
03:00 +10°C° 0.1 mm 6 mps 736 mmHg 81%
04:00 +10°C° 0.2 mm 6 mps 736 mmHg 82%
05:00 +10°C° 0.2 mm 6 mps 736 mmHg 83%
06:00 +9°C° 0.2 mm 6 mps 736 mmHg 84%
07:00 +10°C° 0.4 mm 7 mps 737 mmHg 82%
08:00 +10°C° 0.4 mm 9 mps 738 mmHg 80%
09:00 +9°C° 0.4 mm 11 mps 739 mmHg 78%
10:00 +11°C° 0 mm 10 mps 740 mmHg 72%
11:00 +11°C° 0 mm 10 mps 741 mmHg 67%
12:00 +12°C° 0 mm 10 mps 742 mmHg 62%
13:00 +13°C° 0 mm 9 mps 742 mmHg 61%
14:00 +13°C° 0 mm 8 mps 743 mmHg 61%
15:00 +15°C° 0 mm 7 mps 743 mmHg 60%
16:00 +14°C° 0.1 mm 7 mps 743 mmHg 64%
17:00 +12°C° 0.1 mm 7 mps 743 mmHg 68%
18:00 +11°C° 0.1 mm 6 mps 744 mmHg 72%
19:00 +11°C° 0 mm 6 mps 744 mmHg 73%
20:00 +10°C° 0 mm 6 mps 745 mmHg 74%
21:00 +10°C° 0 mm 6 mps 745 mmHg 74%
22:00 +10°C° 0 mm 6 mps 745 mmHg 74%
23:00 +10°C° 0 mm 6 mps 745 mmHg 75%

5 October, Monday

Time Temperature Precipitation Wind Pressure Humidity
00:00 +10°C° 0 mm 6 mps 745 mmHg 75%
01:00 +10°C° 0 mm 6 mps 745 mmHg 75%
02:00 +10°C° 0 mm 6 mps 746 mmHg 76%
03:00 +9°C° 0 mm 6 mps 746 mmHg 76%
04:00 +9°C° 0 mm 6 mps 746 mmHg 76%
05:00 +9°C° 0 mm 6 mps 746 mmHg 75%
06:00 +9°C° 0 mm 6 mps 747 mmHg 75%
07:00 +10°C° 0 mm 6 mps 746 mmHg 71%
08:00 +11°C° 0 mm 7 mps 746 mmHg 68%
09:00 +12°C° 0 mm 8 mps 746 mmHg 64%
10:00 +12°C° 0 mm 8 mps 746 mmHg 63%
11:00 +12°C° 0 mm 7 mps 746 mmHg 63%
12:00 +14°C° 0 mm 7 mps 746 mmHg 62%
13:00 +12°C° 0.3 mm 8 mps 745 mmHg 69%
14:00 +11°C° 0.3 mm 8 mps 744 mmHg 76%
15:00 +10°C° 0.3 mm 9 mps 744 mmHg 83%
16:00 +10°C° 1 mm 8 mps 744 mmHg 86%
17:00 +10°C° 1 mm 8 mps 743 mmHg 88%
18:00 +11°C° 1 mm 8 mps 743 mmHg 90%
19:00 +11°C° 0.2 mm 8 mps 743 mmHg 89%
20:00 +11°C° 0.2 mm 8 mps 744 mmHg 88%
21:00 +11°C° 0.2 mm 8 mps 744 mmHg 87%
22:00 +11°C° 0 mm 8 mps 745 mmHg 88%
23:00 +10°C° 0 mm 7 mps 745 mmHg 89%

6 October, Tuesday

Time Temperature Precipitation Wind Pressure Humidity
00:00 +10°C° 0 mm 7 mps 746 mmHg 89%
01:00 +10°C° 0.1 mm 7 mps 746 mmHg 90%
02:00 +11°C° 0.1 mm 7 mps 747 mmHg 90%
03:00 +11°C° 0.1 mm 7 mps 747 mmHg 90%
04:00 +11°C° 0.2 mm 7 mps 747 mmHg 90%
05:00 +10°C° 0.2 mm 7 mps 748 mmHg 90%
06:00 +10°C° 0.2 mm 7 mps 749 mmHg 91%
07:00 +11°C° 0 mm 7 mps 749 mmHg 88%
08:00 +11°C° 0 mm 7 mps 750 mmHg 86%
09:00 +12°C° 0 mm 7 mps 750 mmHg 83%
10:00 +12°C° 0.2 mm 7 mps 750 mmHg 80%
11:00 +14°C° 0.2 mm 7 mps 751 mmHg 76%
12:00 +15°C° 0.2 mm 7 mps 751 mmHg 73%
13:00 +14°C° 0.5 mm 7 mps 751 mmHg 75%
14:00 +14°C° 0.5 mm 6 mps 752 mmHg 77%
15:00 +14°C° 0.5 mm 6 mps 752 mmHg 79%
16:00 +13°C° 0.3 mm 5 mps 752 mmHg 83%
17:00 +12°C° 0.3 mm 5 mps 752 mmHg 86%
18:00 +11°C° 0.3 mm 4 mps 753 mmHg 89%
19:00 +11°C° 0 mm 4 mps 753 mmHg 90%
20:00 +10°C° 0 mm 4 mps 753 mmHg 91%
21:00 +10°C° 0 mm 4 mps 753 mmHg 91%
22:00 +10°C° 0.1 mm 4 mps 753 mmHg 92%
23:00 +10°C° 0.1 mm 4 mps 753 mmHg 94%
Show more

We Need Your Consent

Meteoprog and our Service Providers may store and access personal data such as cookies, device identifiers or other similar technologies on your device and process such data to personalise content and ads, as well as provide social media features and to analyse the traffic.

  • Store and/or access information on your device

    Cookies, device identifiers or other information can be stored or accessed on your device for the purposes indicated above.

  • Personalised ads and content, ad and content measurement, audience insights, and products development

    Ads and content can be personalised based on a profile. More data can be added to better personalise ads and content. Ad and content performance can be measured. Insights about the audience who saw the ads and content can be derived. Such data can be used to develop or improve user’s experience, systems and software.

By clicking ‘I Agree’ you will allow the use of indicated cookies, device identifiers, web beacons or other similar technologies. Your settings can be changed in the browser on your device.

For certain purposes, legitimate interests may be relied on, rather than consent. You can read more about this in our Privacy and Cookie Policy.